Overview Statistics Trail Chart Weather Telemetry Raw packets
 

This is the latest recevied weather packets stored in our database for station/object OE2WAO-15. If no packets are shown the sender has not sent any weather packets the latest 10 day(s).

<< 24 25 26 27 28 29 30 >>
Time Temp. Humidity Pressure Rain* Wind** Luminosity Snow
1788112068 24.44° C 99% 1015.6 hPa - - - -
1788111460 25° C 99% 1015.5 hPa - - - -
1788110852 25° C 99% 1015.4 hPa - - - -
1788110244 25.56° C 99% 1015.4 hPa - - - -
1788109636 25.56° C 99% 1015.4 hPa - - - -
1788109028 26.11° C 99% 1015.4 hPa - - - -
1788108421 26.11° C 99% 1015.4 hPa - - - -
1788107813 26.11° C 99% 1015.4 hPa - - - -
1788107206 26.67° C 99% 1015.4 hPa - - - -
1788106598 26.67° C 99% 1015.4 hPa - - - -
1788105991 27.22° C 98% 1015.6 hPa - - - -
1788105383 27.22° C 94% 1015.7 hPa - - - -
1788104776 27.78° C 92% 1015.7 hPa - - - -
1788104168 27.78° C 91% 1015.7 hPa - - - -
1788103560 27.78° C 89% 1015.6 hPa - - - -
1788102952 27.78° C 85% 1015.7 hPa - - - -
1788102345 28.33° C 83% 1015.7 hPa - - - -
1788101737 28.33° C 86% 1015.7 hPa - - - -
1788101130 28.33° C 87% 1015.7 hPa - - - -
1788100522 28.33° C 83% 1015.8 hPa - - - -
1788099914 28.89° C 83% 1015.9 hPa - - - -
1788099307 28.33° C 82% 1015.9 hPa - - - -
1788098699 28.33° C 80% 1016 hPa - - - -
1788098105 28.33° C 83% 1016.1 hPa - - - -
1788097481 28.33° C 85% 1016.2 hPa - - - -

* Rain since midnight (hover to see other rain measurements)
** Current wind speed in m/s (hover to see current wind gust speed)